AVA143 SVMI-SKBO

Flight info

Callsign AVA143
Flight time 1h 34m
Altitude 38000
Route BUTSA2 PBL UP533 BNS UW50 KIKAS UW44 BUV/N0367F240 A567 VULAM VULAM6D
Aircraft A20N/M-SDE2E3FGHIRWXY/LB1

Departure

Time 2025-10-04 06:07
Airport Maiquetía Simón Bolívar International Airport (SVMI)

Arrival

Time 2025-10-04 07:41
Airport El Dorado International Airport (SKBO)
Time Latitude Longitude Altitude Speed Heading
2025-10-04 05:43 10.59807 -67.00968 240 ft 0 kts 178°
2025-10-04 05:54 10.59823 -67.00969 240 ft 2 kts 178°
2025-10-04 05:54 10.59855 -67.00970 240 ft 2 kts 179°
2025-10-04 05:55 10.59807 -67.00968 239 ft 0 kts 178°
2025-10-04 05:59 10.59857 -67.00970 240 ft 2 kts 179°
2025-10-04 06:00 10.59905 -67.00949 239 ft 0 kts 269°
2025-10-04 06:03 10.59901 -67.01117 242 ft 6 kts 268°
2025-10-04 06:03 10.59922 -67.01234 244 ft 7 kts 332°
2025-10-04 06:03 10.59993 -67.01238 244 ft 16 kts 355°
2025-10-04 06:04 10.60314 -67.01252 243 ft 0 kts 358°
2025-10-04 06:05 10.60383 -67.01222 244 ft 8 kts 80°
2025-10-04 06:05 10.60399 -67.00556 233 ft 133 kts 88°
2025-10-04 06:06 10.60495 -66.97774 1119 ft 232 kts 86°
2025-10-04 06:07 10.61360 -66.92443 4591 ft 269 kts 75°
2025-10-04 06:07 10.62238 -66.90775 5900 ft 272 kts 44°
2025-10-04 06:07 10.65749 -66.89771 8394 ft 274 kts 354°
2025-10-04 06:08 10.69632 -66.89977 10776 ft 285 kts 356°
2025-10-04 06:08 10.73653 -66.89970 12552 ft 296 kts 359°
2025-10-04 06:09 10.77762 -66.90340 13661 ft 298 kts 342°
2025-10-04 06:09 10.81355 -66.92387 14764 ft 299 kts 315°
2025-10-04 06:10 10.83652 -66.95894 15868 ft 302 kts 289°
2025-10-04 06:11 10.84217 -67.02278 17520 ft 310 kts 269°
2025-10-04 06:11 10.84189 -67.04477 18072 ft 312 kts 269°
2025-10-04 06:11 10.84150 -67.08932 19174 ft 318 kts 269°
2025-10-04 06:12 10.84124 -67.13467 20276 ft 324 kts 270°
2025-10-04 06:12 10.84102 -67.18085 21380 ft 329 kts 269°
2025-10-04 06:13 10.83590 -67.22710 22474 ft 335 kts 257°
2025-10-04 06:13 10.82355 -67.27326 23580 ft 342 kts 255°
2025-10-04 06:14 10.81045 -67.32015 24683 ft 348 kts 255°
2025-10-04 06:14 10.80385 -67.34390 25234 ft 351 kts 255°
2025-10-04 06:16 10.74448 -67.55828 30012 ft 376 kts 255°
2025-10-04 06:18 10.68804 -67.76162 34362 ft 367 kts 255°
2025-10-04 06:20 10.60650 -67.93793 38004 ft 345 kts 229°
2025-10-04 06:22 10.48825 -68.07310 38000 ft 371 kts 229°
2025-10-04 06:24 10.33500 -68.25008 37999 ft 374 kts 230°
2025-10-04 06:26 10.21172 -68.39233 38008 ft 409 kts 230°
2025-10-04 06:28 10.02930 -68.60240 37248 ft 455 kts 229°
2025-10-04 06:30 9.88392 -68.76955 37965 ft 451 kts 229°
2025-10-04 06:32 9.71790 -68.96015 37953 ft 452 kts 229°
2025-10-04 06:35 9.50830 -69.19750 37950 ft 453 kts 228°
2025-10-04 06:36 9.36073 -69.36313 37951 ft 453 kts 228°
2025-10-04 06:39 9.17087 -69.57592 37944 ft 453 kts 229°
2025-10-04 06:40 9.02352 -69.74081 37948 ft 452 kts 229°
2025-10-04 06:43 8.83412 -69.95242 37947 ft 452 kts 229°
2025-10-04 06:44 8.68624 -70.11741 37947 ft 453 kts 229°
2025-10-04 06:47 8.49616 -70.32918 37949 ft 453 kts 229°
2025-10-04 06:48 8.34832 -70.49364 37954 ft 453 kts 229°
2025-10-04 06:50 8.20016 -70.65828 37958 ft 454 kts 228°
2025-10-04 06:52 8.00867 -70.87075 37969 ft 457 kts 228°
2025-10-04 06:54 7.85915 -71.03643 37966 ft 457 kts 228°
2025-10-04 06:56 7.66704 -71.24904 37965 ft 456 kts 228°
2025-10-04 06:58 7.51770 -71.41410 37955 ft 455 kts 228°
2025-10-04 07:00 7.32587 -71.62585 37955 ft 456 kts 227°
2025-10-04 07:03 7.13350 -71.83790 37947 ft 457 kts 227°
2025-10-04 07:04 6.98519 -72.00505 37957 ft 459 kts 232°
2025-10-04 07:06 6.82861 -72.20792 38088 ft 460 kts 232°
2025-10-04 07:09 6.65527 -72.43001 37429 ft 417 kts 232°
2025-10-04 07:10 6.53231 -72.58744 35466 ft 411 kts 232°
2025-10-04 07:13 6.36336 -72.80350 34023 ft 470 kts 232°
2025-10-04 07:14 6.22495 -72.98722 32792 ft 474 kts 234°
2025-10-04 07:16 6.07067 -73.20271 31446 ft 477 kts 234°
2025-10-04 07:18 5.91536 -73.41858 30156 ft 477 kts 234°
2025-10-04 07:20 5.76175 -73.63191 27405 ft 459 kts 234°
2025-10-04 07:21 5.68860 -73.73336 24915 ft 445 kts 233°
2025-10-04 07:22 5.65082 -73.78571 24791 ft 475 kts 233°
2025-10-04 07:22 5.61201 -73.83953 24662 ft 476 kts 233°
2025-10-04 07:23 5.57338 -73.89309 24534 ft 477 kts 233°
2025-10-04 07:23 5.55390 -73.92010 24472 ft 478 kts 233°
2025-10-04 07:24 5.51497 -73.97406 24341 ft 477 kts 233°
2025-10-04 07:24 5.45671 -74.05478 24152 ft 475 kts 233°
2025-10-04 07:25 5.41810 -74.10805 22938 ft 474 kts 232°
2025-10-04 07:25 5.38609 -74.16636 20698 ft 481 kts 244°
2025-10-04 07:26 5.36001 -74.22527 20039 ft 436 kts 244°
2025-10-04 07:26 5.34823 -74.25221 20011 ft 408 kts 244°
2025-10-04 07:27 5.32692 -74.30118 19999 ft 360 kts 244°
2025-10-04 07:27 5.30839 -74.34454 19992 ft 321 kts 244°
2025-10-04 07:28 5.28887 -74.38217 19976 ft 289 kts 229°
2025-10-04 07:28 5.24524 -74.42025 19024 ft 281 kts 213°
2025-10-04 07:29 5.21227 -74.44463 17790 ft 297 kts 213°
2025-10-04 07:29 5.18101 -74.46811 17332 ft 268 kts 213°
2025-10-04 07:30 5.16648 -74.47910 17149 ft 255 kts 213°
2025-10-04 07:30 5.13826 -74.49842 16582 ft 239 kts 202°
2025-10-04 07:31 5.10718 -74.50762 15855 ft 230 kts 180°
2025-10-04 07:31 5.06171 -74.49937 14766 ft 221 kts 150°
2025-10-04 07:32 5.04844 -74.49138 14345 ft 226 kts 140°
2025-10-04 07:32 5.01161 -74.46069 13428 ft 230 kts 137°
2025-10-04 07:33 4.98698 -74.43981 12703 ft 236 kts 137°
2025-10-04 07:33 4.97440 -74.42918 12375 ft 237 kts 137°
2025-10-04 07:34 4.94927 -74.40806 12030 ft 238 kts 137°
2025-10-04 07:34 4.92491 -74.38767 12060 ft 221 kts 137°
2025-10-04 07:35 4.90157 -74.36814 12129 ft 217 kts 137°
2025-10-04 07:35 4.87846 -74.34883 12144 ft 207 kts 138°
2025-10-04 07:36 4.85764 -74.33158 12183 ft 190 kts 138°
2025-10-04 07:36 4.82895 -74.30447 12115 ft 189 kts 132°
2025-10-04 07:37 4.80075 -74.27574 11321 ft 188 kts 132°
2025-10-04 07:37 4.79161 -74.26646 11098 ft 187 kts 133°
2025-10-04 07:38 4.77405 -74.24842 10807 ft 171 kts 132°
2025-10-04 07:38 4.75844 -74.23186 10788 ft 181 kts 130°
2025-10-04 07:39 4.74344 -74.21149 10233 ft 166 kts 122°
2025-10-04 07:39 4.73681 -74.20235 9913 ft 160 kts 125°
2025-10-04 07:40 4.71112 -74.16985 8430 ft 132 kts 126°
2025-10-04 07:41 4.70288 -74.15921 8375 ft 46 kts 128°
2025-10-04 07:41 4.70126 -74.15688 8374 ft 29 kts 124°
2025-10-04 07:41 4.70177 -74.15431 8373 ft 12 kts 54°
2025-10-04 07:42 4.70150 -74.15365 8371 ft 7 kts 127°
2025-10-04 07:42 4.70087 -74.15281 8373 ft 22 kts 128°
2025-10-04 07:43 4.69873 -74.14838 8371 ft 24 kts 38°
2025-10-04 07:43 4.70034 -74.14710 8373 ft 35 kts 35°
2025-10-04 07:44 4.70048 -74.14063 8373 ft 31 kts 127°
2025-10-04 07:44 4.70000 -74.14018 8373 ft 7 kts 177°
2025-10-04 07:45 4.69943 -74.14075 8373 ft 3 kts 223°
2025-10-04 07:45 4.69942 -74.14076 8373 ft 0 kts 224°